Location: ???????
(55.4362°N, 38.1183°E)
Time: 12:50:33
(UTC+00:00)

M-CUBED/EXP-1 PRIME - Visible Passes

Search period start: 06 December 2021 00:00
Search period end: 16 December 2021 00:00
Orbit: 427 x 652 km, 101.7° (Epoch: 05 December)

Date Brightness Start Highest point End Pass type
(mag) Time Alt. Az. Time Alt. Az. Time Alt. Az.
06 Dec ? 03:15:30 10° ENE 03:17:13 12° E 03:18:55 10° ESE visible
06 Dec ? 04:47:36 10° NNE 04:52:07 68° ESE 04:56:29 10° SSW visible
06 Dec ? 14:03:34 10° SE 14:07:37 43° ENE 14:11:51 10° NNW visible
06 Dec ? 15:37:54 10° SSW 15:41:45 34° WSW 15:45:49 10° NW visible
07 Dec ? 04:40:06 10° NNE 04:44:34 56° ESE 04:48:51 10° S visible
07 Dec ? 13:56:11 10° ESE 14:00:07 36° NE 14:04:15 10° N visible
07 Dec ? 15:30:07 10° S 15:34:09 40° WSW 15:38:23 10° NNW visible
08 Dec ? 04:32:37 10° NNE 04:36:58 46° ESE 04:41:09 10° S visible
08 Dec ? 13:48:48 10° ESE 13:52:39 32° NE 13:56:38 10° N visible
08 Dec ? 15:22:23 10° S 15:26:32 49° WSW 15:30:55 10° NNW visible
09 Dec ? 04:25:08 10° NE 04:29:21 38° ESE 04:33:24 10° S visible
09 Dec ? 13:41:28 10° ESE 13:45:11 28° NE 13:49:00 10° N visible
09 Dec ? 15:14:41 10° S 15:18:57 59° WSW 15:23:25 10° NNW visible
09 Dec ? 16:53:27 10° W 16:53:57 10° W 16:54:28 10° W visible
10 Dec ? 04:17:42 10° NE 04:21:44 32° E 04:25:35 10° SSE visible
10 Dec ? 15:07:02 10° SSE 15:11:22 72° WSW 15:15:53 10° NNW visible
10 Dec ? 16:44:19 10° WSW 16:46:14 13° W 16:48:10 10° WNW visible
11 Dec ? 04:10:17 10° NE 04:14:04 27° E 04:17:43 10° SSE visible
11 Dec ? 14:59:25 10° SSE 15:03:47 85° WSW 15:08:19 10° NNW visible
11 Dec ? 16:35:56 10° SW 16:38:31 15° W 16:41:09 10° NW visible
12 Dec ? 04:02:54 10° NE 04:06:23 22° E 04:09:45 10° SSE visible
12 Dec ? 14:51:49 10° SSE 14:56:12 81° ENE 15:00:45 10° NNW visible
12 Dec ? 16:27:45 10° SW 16:30:48 18° W 16:33:56 10° NW visible
13 Dec ? 03:55:34 10° NE 03:58:41 19° E 04:01:41 10° SE visible
13 Dec ? 14:44:15 10° SE 14:48:38 68° ENE 14:53:09 10° NNW visible
13 Dec ? 16:19:41 10° SSW 16:23:05 22° W 16:26:36 10° NW visible
14 Dec ? 03:48:21 10° NE 03:50:58 15° E 03:53:29 10° SE visible
14 Dec ? 14:36:44 10° SE 14:41:05 57° ENE 14:45:32 10° NNW visible
14 Dec ? 16:11:42 10° SSW 16:15:24 26° W 16:19:13 10° NW visible
15 Dec ? 03:41:17 10° ENE 03:43:12 13° E 03:45:05 10° ESE visible
15 Dec ? 14:29:14 10° SE 14:33:31 48° ENE 14:37:53 10° NNW visible
15 Dec ? 16:03:47 10° SSW 16:07:43 31° W 16:11:45 10° NW visible
